Location: Arthez
(43.0833°N, 0.2500°W)
Time: 06:46:01
(UTC+00:00)

Cosmos 1140 Rocket - Pass Details

Date: 23 October 2021
Orbit: 743 x 768 km, 74.1° (Epoch: 02 December)

Event Time Altitude Azimuth Distance (km) Brightness Sun altitude
Rises 18:53:29 0° 346° (NNW) 3,217 6.9 -20.4°
Reaches altitude 10° 18:56:02 10° 355° (N) 2,292 6.0 -20.8°
Enters shadow 19:00:05 35° 43° (NE) 1,226 4.2 -21.6°
